[ hide orbit diagram ]
For accurate long-term ephemerides, please instead use our Horizons system.This orbit viewer was implemented using two-body methods, and hence should not be used for determining accurate long-term trajectories (over several years or decades) or planetary encounter circumstances.
Orbital Elements at Epoch 2459000.5 (2020-May-31.0) TDB
Reference: JPL 12 (heliocentric ecliptic J2000)
Element | Value | Uncertainty (1-sigma) | Units |
e | .1960753247980113 | 5.8029e-08 | |
a | 2.30920962143282 | 8.361e-09 | au |
q | 1.856430594883687 | 1.352e-07 | au |
i | 6.059065647852171 | 5.3101e-06 | deg |
node | 3.253874864690818 | 4.2545e-05 | deg |
peri | 10.71019657600706 | 4.4419e-05 | deg |
M | 353.7513151833001 | 1.4849e-05 | deg |
tp | 2459022.747416377602 (2020-Jun-22.24741638) | 5.2918e-05 | TDB |
period | 1281.720895016497 3.51 | 6.9611e-06 1.906e-08 | d yr |
n | .2808723813427152 | 1.5254e-09 | deg/d |
Q | 2.761988647981953 | 1e-08 | au |
|
| | Orbit Determination Parameters
Additional Information
|
[ show covariance matrix ]
Physical Parameter Table
Parameter |
Symbol |
Value |
Units |
Sigma |
Reference |
Notes |
absolute magnitude |
H |
16.0 |
|
n/a |
MPO436370 |
|
|
85046 (6126 P-L) Discovered 1960-Sep-24 by van Houten, C. J., van Houten-Groeneveld, I., Gehrels, T. at Palomar |
Reference: 20040504/Numbers.arc | Last Updated: 2004-07-16 |
|
[ show close-approach data ]
|